RH
46 46 47 48 51 55 60 66 69 72 76 79 79 78 75 70 65 61 58 59 62 64 65 65 65 66 66 65 62 60 58 58 57 56 55 53 53 52 51 51 51 52 53 52 51 50 50 50 51 52 53 54 54 53 52 51 50 48 47 46 45 44 43 42 40 39 37 35 34
47 47 47 47 49 51 56 61 66 70 73 76 79 79 77 74 69 64 60 60 63 66 68 68 68 68 68 68 65 63 61 61 60 58 57 56 55 55 54 54 54 54 54 53 52 51 50 50 50 51 51 51 51 50 49 48 47 46 45 44 43 42 41 40 39 37 35 33 31
49 48 48 48 49 50 53 57 62 67 70 74 77 79 79 76 72 68 65 62 65 69 71 72 71 71 70 70 68 66 64 62 62 61 60 59 58 58 58 58 57 57 56 56 55 54 54 53 53 52 51 50 49 48 47 45 45 43 42 41 40 39 38 37 37 36 34 32 29
52 51 50 50 51 51 52 54 58 63 68 72 76 78 79 78 74 71 69 69 71 73 75 75 75 74 73 72 71 69 66 64 64 64 63 62 62 62 62 62 61 61 60 59 59 59 58 57 56 54 53 51 49 48 46 44 43 42 41 39 38 37 36 35 35 34 33 31 29
55 54 53 53 53 53 53 53 55 59 64 70 75 78 79 78 75 72 71 73 76 79 80 80 79 78 77 76 74 71 69 67 67 67 67 66 66 66 66 66 65 64 63 63 62 61 60 60 58 57 55 54 52 49 47 45 44 42 40 39 37 36 34 34 33 32 32 31 30
58 57 56 55 55 55 54 54 55 57 60 66 72 76 79 80 77 74 72 72 77 82 85 86 85 84 82 80 77 74 72 70 70 70 69 69 69 69 69 69 69 68 67 65 63 62 61 60 59 58 57 55 54 51 50 48 46 43 42 40 38 36 35 33 32 32 31 31 30
60 59 58 58 57 57 56 56 56 57 59 62 68 73 77 80 78 75 72 71 75 80 85 87 88 88 86 85 82 78 75 73 72 71 71 70 70 69 70 70 71 70 69 67 65 63 62 60 59 58 57 56 54 53 51 50 48 46 44 42 40 38 36 34 33 32 31 31 30
62 61 60 60 59 59 58 58 57 57 58 60 63 68 73 77 78 76 73 71 73 77 81 84 87 88 88 87 86 83 80 76 74 73 72 71 70 70 69 70 71 72 72 71 69 66 64 61 60 58 57 56 54 53 52 51 49 48 46 44 42 40 39 37 35 34 32 31 30
63 63 62 61 61 60 60 59 59 59 58 59 61 64 68 72 75 75 73 71 72 74 77 80 84 86 88 87 86 85 83 80 77 75 74 73 72 71 70 69 70 72 73 74 73 70 67 64 62 59 57 55 54 53 52 51 50 48 46 45 43 41 40 39 37 36 34 33 32
62 64 64 63 62 61 61 60 60 60 59 59 60 61 64 67 70 72 72 70 70 71 73 76 80 83 86 87 86 85 83 81 79 78 77 76 75 74 72 71 71 72 73 75 75 73 71 67 64 61 59 56 54 53 52 51 49 48 46 44 43 41 40 40 38 37 35 34 33
57 61 64 64 64 63 62 61 61 60 60 60 60 61 62 64 66 68 69 68 67 68 70 72 75 79 83 85 86 85 84 82 80 79 79 78 78 78 77 76 74 74 74 75 75 74 73 71 68 64 61 58 56 53 52 50 49 47 46 44 43 41 40 39 38 37 36 35 34
50 56 61 64 65 64 63 62 61 61 61 61 61 61 61 62 64 65 66 66 65 65 66 67 69 73 77 81 84 84 84 83 82 80 80 80 80 80 80 80 79 78 77 76 75 74 74 73 71 68 65 61 58 55 53 50 49 47 46 44 43 41 40 39 38 37 36 35 34
42 48 54 60 63 64 65 64 63 62 62 61 61 61 61 62 63 64 64 64 63 63 62 63 64 65 69 73 78 81 83 83 83 82 81 80 80 81 81 81 81 80 79 76 74 74 73 74 73 72 70 67 63 60 56 52 50 48 46 44 43 42 40 39 38 36 35 35 34
36 41 47 53 58 62 64 65 65 64 63 63 62 62 62 62 63 63 63 63 62 62 61 61 61 61 62 64 69 74 77 80 81 82 82 82 81 81 80 81 80 79 77 75 73 73 73 74 74 73 72 71 70 66 62 57 53 50 48 46 45 44 42 41 39 38 37 36 35
31 35 39 45 51 57 62 65 65 65 65 64 63 63 63 63 63 63 62 62 62 62 61 60 60 60 60 59 61 65 69 72 75 77 79 80 80 80 79 78 78 77 75 73 72 72 72 73 72 72 72 72 72 70 67 64 59 56 53 51 50 48 47 46 44 43 42 41 40
28 31 34 38 44 50 56 61 64 65 66 65 65 64 64 63 63 63 63 63 63 62 62 61 60 60 60 59 58 59 61 64 67 70 72 75 76 76 76 76 75 74 73 72 72 72 71 71 70 70 69 69 69 68 67 65 63 61 59 58 56 55 54 52 51 50 49 48 47
26 29 31 34 38 43 49 55 61 64 66 66 66 65 64 64 64 64 64 64 64 63 63 62 62 61 61 60 59 58 57 58 60 62 65 67 69 71 72 72 72 72 72 71 71 71 70 69 68 67 66 66 65 65 64 63 63 62 61 61 60 59 58 57 56 55 54 53 52
24 26 29 32 34 37 42 48 54 60 64 66 66 66 65 64 64 64 64 64 64 64 64 64 63 63 62 61 60 59 57 56 56 57 59 61 63 66 67 68 69 70 70 70 70 69 69 68 66 65 64 64 63 62 61 60 60 60 60 59 59 58 58 57 57 56 54 53 52
23 24 27 30 31 33 36 40 47 53 59 64 65 65 65 64 64 63 63 64 64 64 65 65 64 64 63 62 61 60 58 56 54 54 55 57 59 61 63 65 67 68 68 69 68 68 67 66 65 64 63 62 61 61 59 59 58 58 58 57 56 56 56 56 55 54 53 52 50
23 23 24 27 29 31 32 34 39 45 51 57 61 63 63 63 62 62 62 63 63 63 64 65 65 64 64 63 62 61 59 57 55 53 53 53 56 58 61 63 64 65 66 67 67 66 66 65 64 63 62 62 61 60 59 58 58 57 56 56 55 55 54 54 53 53 52 50 49
24 23 23 24 27 28 30 31 34 37 43 49 54 58 60 60 60 60 60 60 60 61 62 63 63 64 64 63 62 61 60 59 57 55 53 52 54 56 58 61 62 63 64 65 65 65 65 64 63 63 62 61 60 59 59 58 57 57 56 55 55 54 54 53 53 52 51 50 48
26 24 22 23 24 26 27 29 30 32 36 41 46 51 55 56 57 56 56 56 57 58 59 60 61 62 62 62 61 61 60 59 58 57 55 54 54 55 57 59 60 61 62 63 64 64 63 63 62 61 61 60 59 59 58 58 58 57 57 56 55 55 55 54 54 53 51 49 47
28 25 23 22 23 24 26 27 28 29 31 35 40 45 49 52 53 53 53 53 54 55 56 57 59 59 59 59 60 60 59 59 59 58 57 56 55 55 56 57 58 60 61 62 62 62 62 61 61 60 60 60 59 59 59 59 58 58 58 57 56 56 55 54 53 51 49 47 45
30 27 24 23 23 24 25 25 26 27 29 31 35 39 44 47 50 51 51 51 52 53 54 55 56 57 57 58 58 58 59 59 59 59 58 58 57 56 56 56 57 59 60 61 61 61 60 60 59 59 59 60 60 60 60 60 59 59 58 57 56 54 53 52 50 49 47 45 44
32 29 26 24 23 23 24 25 25 26 27 28 31 35 39 43 46 48 49 50 50 51 52 53 54 55 55 56 57 57 58 58 58 58 58 57 57 56 56 56 57 58 59 60 60 59 59 59 59 59 59 59 60 60 60 59 59 58 56 55 53 51 50 49 48 46 45 44 43
34 31 27 25 24 24 24 25 25 26 26 27 29 31 35 39 43 45 47 48 49 49 50 51 52 53 54 55 55 56 57 57 57 57 57 56 56 56 56 56 57 57 58 58 58 58 58 58 57 57 57 58 58 58 57 57 56 55 53 52 50 48 46 45 45 45 44 44 44
36 32 29 26 25 24 24 24 25 26 26 26 26 28 31 35 39 43 45 46 47 48 49 50 51 52 53 53 54 54 55 56 56 57 56 56 56 56 56 56 56 57 57 57 56 56 56 56 55 55 55 55 55 55 54 53 52 51 50 48 47 46 45 44 44 44 44 44 44
38 34 31 28 26 25 24 24 24 26 27 27 26 26 28 31 36 39 42 45 46 47 48 49 50 51 52 52 53 53 54 55 55 55 55 55 55 55 55 56 56 55 55 55 55 54 54 54 53 53 53 52 52 52 52 51 50 49 48 46 46 45 44 44 44 44 44 44 45
41 38 34 30 28 26 25 24 24 25 26 27 27 27 26 28 31 35 39 42 44 46 48 48 49 50 51 52 52 52 53 53 54 54 54 55 55 55 55 55 55 55 54 54 54 53 53 52 52 52 51 51 51 50 50 50 49 49 48 47 46 45 45 45 45 45 44 44 45
44 41 37 34 31 29 27 26 24 24 25 27 28 28 27 26 27 30 34 39 42 44 46 48 49 50 51 51 52 52 52 52 53 53 54 54 54 54 55 55 55 54 54 54 53 53 53 52 52 51 51 51 50 50 50 50 50 49 49 48 47 46 46 45 45 45 45 45 45
46 43 39 36 34 32 31 29 27 26 25 25 27 28 28 26 25 26 29 34 38 41 44 46 48 49 50 51 52 52 52 52 52 53 53 53 54 54 55 55 54 54 54 54 53 53 53 52 52 51 51 51 50 50 50 50 50 50 49 49 48 47 46 46 46 46 46 46 46
48 45 41 37 35 34 33 32 31 29 27 25 26 27 27 27 26 25 26 28 32 37 40 44 46 47 49 50 51 51 51 51 51 51 52 52 53 53 54 54 54 54 54 53 54 53 53 52 52 51 51 51 50 50 50 50 50 49 49 49 48 47 47 47 47 46 46 45 44
51 47 43 39 36 34 33 33 33 32 31 28 26 26 26 28 27 27 25 25 27 30 35 39 43 46 48 49 50 50 50 50 50 50 51 51 52 52 53 53 54 53 53 53 54 53 52 52 52 51 51 50 50 49 49 49 49 49 48 48 48 47 47 46 45 44 43 43 42
53 50 47 42 38 36 34 33 33 33 33 31 29 27 27 27 28 28 26 24 24 25 28 33 38 42 45 47 48 48 49 49 49 49 50 50 50 51 51 52 53 53 52 53 55 54 52 51 51 50 50 49 49 49 48 48 48 48 48 47 47 46 45 43 42 41 40 40 39
55 53 50 46 41 38 35 34 34 34 33 33 32 30 28 28 28 28 28 27 25 23 24 26 31 35 39 43 45 46 47 48 48 49 49 49 50 50 51 51 52 52 52 52 57 57 54 51 50 49 49 48 48 48 48 48 48 47 47 46 45 43 41 39 38 38 37 37 37
57 55 52 48 44 40 37 35 35 35 35 34 33 32 30 29 29 30 31 31 29 26 23 22 25 28 32 36 40 43 45 47 47 48 48 49 49 50 50 51 52 52 52 52 58 61 59 54 51 49 48 48 47 47 47 47 47 46 45 43 41 38 36 34 34 35 35 36 37
58 56 54 51 46 41 37 34 34 35 35 35 35 34 33 32 31 31 32 33 32 30 26 23 22 23 26 30 34 38 42 45 46 47 47 48 48 49 50 51 52 52 52 52 59 64 64 59 54 50 48 48 47 47 46 46 45 43 41 39 36 33 32 31 32 33 34 35 36
59 58 55 52 47 42 37 33 32 32 33 34 35 35 35 34 33 33 33 34 35 34 31 27 23 22 22 25 29 34 38 42 44 46 47 47 47 48 49 51 52 53 53 53 59 64 67 65 58 52 49 48 47 46 45 43 41 39 37 34 32 30 30 31 32 33 35 35 36
60 58 56 54 48 42 37 32 30 30 31 32 33 35 35 35 35 34 35 35 36 36 35 32 28 25 23 23 26 29 34 38 41 44 45 46 46 47 48 50 51 53 54 54 58 64 67 68 61 55 50 49 47 44 42 39 37 35 33 31 30 30 31 32 34 35 36 36 36
60 59 57 54 48 42 36 31 30 29 30 31 33 34 35 35 35 36 36 36 38 39 39 37 34 30 27 24 25 26 30 33 37 40 42 44 44 45 46 48 50 52 53 54 58 63 68 70 63 57 52 48 45 42 38 35 34 32 31 29 29 30 31 33 35 36 36 36 36
60 59 58 55 49 42 36 31 29 29 29 31 32 33 34 35 36 36 36 36 38 39 40 40 38 35 31 27 25 25 27 30 33 36 38 40 41 42 43 46 48 51 53 54 57 62 67 70 64 57 51 47 44 40 36 33 32 31 29 29 29 29 31 33 34 35 36 36 36